Jonesboro, AR

5:53 PM CDT on October 16, 2017 (GMT -0500)
Jonesboro Municipal

Weather History for KJBR - July, 2013

Change the Weather History Date:

Saturday, July 27, 2013

  Actual Average Record
Temperature  
Mean Temperature 78 °F 81 °F  
Max Temperature 87 °F 91 °F 107 °F (1930)
Min Temperature 69 °F 71 °F 52 °F (1897)
Degree Days  
Heating Degree Days 0 0  
Month to date heating degree days 0 0  
Since 1 June heating degree days 0 1  
Since 1 July heating degree days 0 0  
Cooling Degree Days 13 16  
Month to date cooling degree days 407 431  
Year to date cooling degree days 1086 1027  
Since 1 June cooling degree days 856 814  
Growing Degree Days 28 (Base 50)    
Moisture  
Dew Point 64 °F    
Average Humidity 69    
Maximum Humidity 90    
Minimum Humidity 48    
Precipitation  
Precipitation 0.00 in 0.08 in 3.75 in (1933)
Month to date precipitation 2.54 3.23  
Year to date precipitation 32.88 28.26  
Snow  
Snow 0.00 in - - ()
Month to date snowfall 0.0  
Since 1 June snowfall 0.0  
Snow Depth 0.00 in    
Sea Level Pressure  
Sea Level Pressure 29.96 in    
Wind  
Wind Speed 5 mph (NNW)    
Max Wind Speed 12 mph    
Max Gust Speed 33 mph    
Visibility 10 miles    
Events      
T = Trace of Precipitation, MM = Missing Value Source: NWS Daily Summary

Daily Weather History Graph

Daily Weather History Graph

Search for Another Location

Airport or City:

Trip Planner

Search our weather history database for the weather conditions in past years. The results will help you decide how hot, cold, wet, or windy it might be!

Date:

Astronomy

Jul. 27, 2013 Rise Set
Actual Time 6:06 AM CDT 8:11 PM CDT
Civil Twilight 5:38 AM CDT 8:39 PM CDT
Nautical Twilight 5:03 AM CDT 9:14 PM CDT
Astronomical Twilight 4:25 AM CDT 9:51 PM CDT
Moon 11:12 PM CDT (7/27) 11:33 AM CDT (7/27)
Length of Visible Light 15h 01m
Length of Day
14h 04m
Waning Gibbous, 70% of the Moon is Illuminated
Jul 27
Waning Gibbous
Jul 29
Last Quarter
Aug 6
New
Aug 14
First Quarter
Aug 20
Full

Hourly Weather History & Observations

Time (CDT) Temp. Heat Index Dew Point Humidity Pressure Visibility Wind Dir Wind Speed Gust Speed Precip Events Conditions
12:53 AM 72.0 °F - 68.0 °F 87% 30.00 in 10.0 mi Calm Calm - N/A   Overcast
1:53 AM 72.0 °F - 68.0 °F 87% 30.00 in 10.0 mi Calm Calm - N/A   Overcast
2:53 AM 71.1 °F - 66.9 °F 87% 29.99 in 10.0 mi Calm Calm - N/A   Overcast
3:53 AM 71.1 °F - 66.9 °F 87% 29.97 in 10.0 mi Calm Calm - N/A   Overcast
4:53 AM 71.1 °F - 66.0 °F 84% 29.96 in 10.0 mi North 4.6 mph - N/A   Overcast
5:53 AM 71.1 °F - 64.0 °F 78% 29.97 in 10.0 mi NNW 3.5 mph - N/A   Overcast
6:53 AM 71.1 °F - 64.0 °F 78% 29.98 in 10.0 mi NNW 4.6 mph - N/A   Overcast
7:53 AM 73.0 °F - 64.9 °F 76% 29.99 in 10.0 mi WNW 3.5 mph - N/A   Mostly Cloudy
8:53 AM 75.9 °F - 66.9 °F 74% 29.99 in 10.0 mi NW 4.6 mph - N/A   Clear
9:53 AM 79.0 °F - 66.9 °F 66% 29.99 in 10.0 mi Variable 5.8 mph - N/A   Partly Cloudy
10:53 AM 81.0 °F 83.0 °F 66.0 °F 60% 29.98 in 10.0 mi Variable 6.9 mph - N/A   Scattered Clouds
11:53 AM 84.0 °F 85.4 °F 64.0 °F 51% 29.96 in 10.0 mi Variable 3.5 mph - N/A   Partly Cloudy
12:53 PM 82.0 °F 83.1 °F 63.0 °F 52% 29.96 in 10.0 mi SW 3.5 mph - N/A   Scattered Clouds
1:53 PM 84.9 °F 85.9 °F 63.0 °F 48% 29.94 in 10.0 mi NW 5.8 mph - N/A   Scattered Clouds
2:53 PM 84.0 °F 85.4 °F 64.0 °F 51% 29.92 in 10.0 mi NW 5.8 mph - N/A   Scattered Clouds
3:53 PM 82.9 °F 85.4 °F 66.9 °F 58% 29.91 in 10.0 mi NNW 4.6 mph - N/A   Scattered Clouds
4:53 PM 86.0 °F 88.8 °F 66.9 °F 53% 29.91 in 10.0 mi NNW 8.1 mph - N/A   Clear
5:53 PM 86.0 °F 87.3 °F 64.0 °F 48% 29.90 in 10.0 mi Variable 4.6 mph - N/A   Clear
6:53 PM 84.0 °F 84.5 °F 62.1 °F 47% 29.90 in 10.0 mi NNW 6.9 mph - N/A   Clear
7:53 PM 80.1 °F 81.5 °F 63.0 °F 56% 29.92 in 10.0 mi North 3.5 mph - N/A   Clear
8:53 PM 77.0 °F - 62.1 °F 60% 29.94 in 10.0 mi NNE 8.1 mph - N/A   Clear
9:53 PM 73.9 °F - 61.0 °F 64% 29.95 in 10.0 mi North 8.1 mph - N/A   Clear
10:53 PM 72.0 °F - 59.0 °F 64% 29.96 in 10.0 mi NNE 3.5 mph - N/A   Clear
11:53 PM 71.1 °F - 57.9 °F 63% 29.97 in 10.0 mi NNE 3.5 mph - N/A   Clear